Flag for Norway Weather past 2 weeks in Osøyro, Norway

Now
49 °F

Overcast.


Feels Like: 49 °F
Forecast: 48 / 58 °F
Wind: No wind

Location: Bergen / Flesland

Current Time: Sep 24, 2014 at 5:11:26 AM

Latest Report: Sep 24, 2014 at 4:00 AM


Visibility: 3 mi

Pressure: 29.74 "Hg

Humidity: 96%

Dew point: 47 °F

Location of OsøyroLocation

Historic Weather in Osøyro — Graph

°F

Osøyro temperature yesterday

Maximum temperature yesterday: 52 °F (at 7:00 PM)
Minimum temperature yesterday: 40 °F (at 1:00 AM)
Average temperature yesterday: 48 °F

Past Weeks' High & Low Weather Summary

 TemperatureHumidityPressure
High69 °F (Sep 16, 5:00 PM)98% (Sep 11, 8:00 AM)30.48 "Hg (Sep 11, 8:00 AM)
Low40 °F (Sep 23, 1:00 AM)31% (Sep 16, 5:00 PM)29.76 "Hg (Sep 24, 3:00 AM)
Average55 °F80%30.18 "Hg
* Reported Sep 9 3:00 AM — Sep 24 3:00 AM, Osøyro, Weather by CustomWeather, © 2014

Note: Actual official high and low records may vary slightly from our data, if they occured in-between our weather recording intervals... More about our weather records

Advertising

Osøyro weather history for previous 24 hours

 ConditionsComfort  
Time TempWeatherWind HumidityBarometerVisibility
3:00 AM
Sep 24
49 °FLight rain. Overcast.1 mph96%29.76 "Hg2 mi
2:00 AM49 °FDrizzle. Low clouds.1 mph96%29.78 "Hg3 mi
1:00 AM49 °FRain showers. Passing clouds.1 mph95%29.79 "Hg3 mi
12:00 AM49 °FRain showers. Overcast.2 mph94%29.80 "Hg3 mi
11:00 PM
Sep 23
49 °FDrizzle. Fog.1 mph92%29.81 "Hg3 mi
10:00 PM50 °FOvercast.2 mph89%29.82 "Hg10 mi
9:00 PM51 °FOvercast.3 mph84%29.83 "Hg10 mi
8:00 PM51 °FOvercast.2 mph80%29.84 "Hg9 mi
7:00 PM52 °FOvercast.2 mph78%29.84 "Hg12 mi
6:00 PM51 °FPartly sunny.3 mph79%29.85 "Hg14 mi
5:00 PM51 °FOvercast.5 mph81%29.87 "Hg14 mi
4:00 PM50 °FOvercast.6 mph83%29.89 "Hg14 mi
3:00 PM49 °FOvercast.5 mph89%29.92 "Hg10 mi
2:00 PM50 °FLight rain. Low clouds.5 mph88%29.93 "Hg14 mi
1:00 PM49 °FLight rain. Overcast.5 mph87%29.94 "Hg5 mi
12:00 PM49 °FRain showers. Overcast.3 mph87%29.94 "Hg19 mi
11:00 AM48 °FDrizzle. Overcast.5 mph86%29.95 "Hg6 mi
10:00 AM48 °FOvercast.3 mph86%29.96 "Hg14 mi
9:00 AM47 °FOvercast.5 mph87%29.97 "Hg12 mi
8:00 AM46 °FRain showers. Overcast.3 mph90%29.98 "Hg11 mi
7:00 AM46 °FRain showers. Overcast.2 mph88%29.99 "Hg12 mi
6:00 AM46 °FRain showers. Overcast.2 mph88%29.99 "Hg17 mi
5:00 AM46 °FOvercast.2 mph82%30.00 "Hg22 mi
Weather by CustomWeather, © 2014

See weather overviewHow to use our weather pages